Hourly Weather Bolshie Izori

Today, 17 June, Thursday

Time Temperature Precipitation Wind Pressure Humidity
00:00 +12°C° 0 mm 1 mps 755 mmHg 72%
01:00 +12°C° 0 mm 1 mps 755 mmHg 73%
02:00 +10°C° 0 mm 0 mps 756 mmHg 74%
03:00 +11°C° 0 mm 0 mps 756 mmHg 74%
04:00 +12°C° 0 mm 0 mps 756 mmHg 73%
05:00 +12°C° 0 mm 0 mps 756 mmHg 73%
06:00 +15°C° 0 mm 0 mps 757 mmHg 65%
07:00 +17°C° 0 mm 0 mps 757 mmHg 58%
08:00 +19°C° 0 mm 0 mps 757 mmHg 50%
09:00 +20°C° 0 mm 0 mps 757 mmHg 46%
10:00 +24°C° 0 mm 1 mps 757 mmHg 41%
11:00 +25°C° 0 mm 1 mps 757 mmHg 37%
12:00 +26°C° 0 mm 1 mps 757 mmHg 36%
13:00 +26°C° 0 mm 1 mps 757 mmHg 34%
14:00 +27°C° 0 mm 1 mps 757 mmHg 33%
15:00 +26°C° 0 mm 1 mps 757 mmHg 35%
16:00 +26°C° 0 mm 1 mps 757 mmHg 36%
17:00 +26°C° 0 mm 1 mps 757 mmHg 38%
18:00 +24°C° 0 mm 1 mps 757 mmHg 47%
19:00 +22°C° 0 mm 1 mps 757 mmHg 57%
20:00 +18°C° 0 mm 0 mps 757 mmHg 66%
21:00 +19°C° 0 mm 1 mps 757 mmHg 67%
22:00 +18°C° 0 mm 1 mps 758 mmHg 68%
23:00 +16°C° 0 mm 1 mps 758 mmHg 69%

Tomorrow, 18 June, Friday

Time Temperature Precipitation Wind Pressure Humidity
00:00 +16°C° 0 mm 1 mps 758 mmHg 70%
01:00 +15°C° 0 mm 1 mps 758 mmHg 72%
02:00 +15°C° 0 mm 1 mps 758 mmHg 74%
03:00 +15°C° 0 mm 1 mps 758 mmHg 74%
04:00 +15°C° 0 mm 1 mps 758 mmHg 74%
05:00 +16°C° 0 mm 1 mps 758 mmHg 75%
06:00 +19°C° 0 mm 1 mps 758 mmHg 68%
07:00 +21°C° 0 mm 1 mps 758 mmHg 61%
08:00 +23°C° 0 mm 1 mps 758 mmHg 53%
09:00 +25°C° 0 mm 2 mps 758 mmHg 49%
10:00 +26°C° 0 mm 2 mps 758 mmHg 46%
11:00 +28°C° 0 mm 2 mps 758 mmHg 42%
12:00 +28°C° 0 mm 2 mps 758 mmHg 41%
13:00 +29°C° 0 mm 2 mps 757 mmHg 39%
14:00 +29°C° 0 mm 2 mps 757 mmHg 38%
15:00 +29°C° 0 mm 2 mps 757 mmHg 41%
16:00 +29°C° 0 mm 2 mps 757 mmHg 43%
17:00 +29°C° 0 mm 2 mps 756 mmHg 46%
18:00 +26°C° 0 mm 2 mps 756 mmHg 56%
19:00 +24°C° 0 mm 2 mps 756 mmHg 65%
20:00 +21°C° 0 mm 2 mps 756 mmHg 75%
21:00 +20°C° 0 mm 2 mps 757 mmHg 78%
22:00 +19°C° 0 mm 2 mps 757 mmHg 81%
23:00 +17°C° 0 mm 2 mps 757 mmHg 84%

Day after tomorrow, 19 June, Saturday

Time Temperature Precipitation Wind Pressure Humidity
00:00 +17°C° 0 mm 2 mps 757 mmHg 88%
01:00 +16°C° 0 mm 2 mps 757 mmHg 91%
02:00 +16°C° 0 mm 2 mps 757 mmHg 94%
03:00 +16°C° 0 mm 2 mps 757 mmHg 92%
04:00 +16°C° 0 mm 2 mps 757 mmHg 90%
05:00 +18°C° 0 mm 1 mps 758 mmHg 88%
06:00 +19°C° 0 mm 2 mps 757 mmHg 79%
07:00 +21°C° 0 mm 2 mps 757 mmHg 70%
08:00 +24°C° 0 mm 3 mps 757 mmHg 61%
09:00 +25°C° 0 mm 3 mps 757 mmHg 55%
10:00 +27°C° 0 mm 3 mps 757 mmHg 50%
11:00 +28°C° 0 mm 3 mps 757 mmHg 44%
12:00 +29°C° 0 mm 3 mps 756 mmHg 42%
13:00 +29°C° 0 mm 3 mps 756 mmHg 40%
14:00 +30°C° 0 mm 3 mps 756 mmHg 38%
15:00 +30°C° 0 mm 3 mps 755 mmHg 41%
16:00 +29°C° 0 mm 2 mps 755 mmHg 43%
17:00 +29°C° 0 mm 2 mps 755 mmHg 46%
18:00 +27°C° 0 mm 2 mps 755 mmHg 56%
19:00 +25°C° 0 mm 2 mps 755 mmHg 66%
20:00 +23°C° 0 mm 2 mps 755 mmHg 76%
21:00 +21°C° 0 mm 2 mps 755 mmHg 80%
22:00 +20°C° 0 mm 2 mps 755 mmHg 84%
23:00 +18°C° 0 mm 2 mps 755 mmHg 88%

20 June, Sunday

Time Temperature Precipitation Wind Pressure Humidity
00:00 +18°C° 0 mm 2 mps 755 mmHg 90%
01:00 +17°C° 0 mm 2 mps 756 mmHg 93%
02:00 +17°C° 0 mm 2 mps 756 mmHg 96%
03:00 +17°C° 0 mm 2 mps 756 mmHg 94%
04:00 +17°C° 0 mm 2 mps 756 mmHg 92%
05:00 +18°C° 0 mm 2 mps 755 mmHg 90%
06:00 +20°C° 0 mm 2 mps 755 mmHg 82%
07:00 +23°C° 0 mm 2 mps 755 mmHg 73%
08:00 +25°C° 0 mm 3 mps 755 mmHg 65%
09:00 +26°C° 0 mm 3 mps 755 mmHg 60%
10:00 +27°C° 0 mm 3 mps 755 mmHg 54%
11:00 +29°C° 0 mm 3 mps 755 mmHg 49%
12:00 +29°C° 0 mm 3 mps 754 mmHg 48%
13:00 +30°C° 0 mm 3 mps 754 mmHg 46%
14:00 +30°C° 0 mm 3 mps 754 mmHg 45%
15:00 +30°C° 0 mm 3 mps 754 mmHg 49%
16:00 +29°C° 0 mm 3 mps 753 mmHg 52%
17:00 +29°C° 0 mm 3 mps 753 mmHg 55%
18:00 +27°C° 0 mm 3 mps 753 mmHg 64%
19:00 +26°C° 0 mm 2 mps 753 mmHg 73%
20:00 +24°C° 0 mm 2 mps 753 mmHg 81%
21:00 +23°C° 0 mm 2 mps 753 mmHg 84%
22:00 +21°C° 0 mm 2 mps 753 mmHg 87%
23:00 +20°C° 0 mm 2 mps 753 mmHg 90%

21 June, Monday

Time Temperature Precipitation Wind Pressure Humidity
00:00 +20°C° 0 mm 2 mps 753 mmHg 92%
01:00 +20°C° 0 mm 1 mps 754 mmHg 94%
02:00 +20°C° 0 mm 1 mps 754 mmHg 96%
03:00 +20°C° 0 mm 1 mps 754 mmHg 95%
04:00 +21°C° 0 mm 1 mps 754 mmHg 93%
05:00 +21°C° 0 mm 1 mps 754 mmHg 91%
06:00 +23°C° 0 mm 1 mps 754 mmHg 83%
07:00 +25°C° 0 mm 1 mps 754 mmHg 75%
08:00 +27°C° 0 mm 2 mps 754 mmHg 66%
09:00 +28°C° 0 mm 2 mps 754 mmHg 60%
10:00 +29°C° 0 mm 2 mps 754 mmHg 53%
11:00 +31°C° 0 mm 2 mps 754 mmHg 47%
12:00 +31°C° 0 mm 2 mps 753 mmHg 44%
13:00 +32°C° 0 mm 2 mps 753 mmHg 42%
14:00 +34°C° 0 mm 2 mps 753 mmHg 39%
15:00 +32°C° 0 mm 2 mps 753 mmHg 40%
16:00 +32°C° 0 mm 1 mps 753 mmHg 42%
17:00 +32°C° 0 mm 1 mps 753 mmHg 43%
18:00 +30°C° 0 mm 1 mps 753 mmHg 52%
19:00 +28°C° 0 mm 1 mps 753 mmHg 61%
20:00 +26°C° 0 mm 1 mps 753 mmHg 70%
21:00 +25°C° 0 mm 1 mps 753 mmHg 73%
22:00 +23°C° 0 mm 1 mps 753 mmHg 75%
23:00 +22°C° 0 mm 1 mps 753 mmHg 78%

22 June, Tuesday

Time Temperature Precipitation Wind Pressure Humidity
00:00 +22°C° 0 mm 1 mps 753 mmHg 79%
01:00 +21°C° 0 mm 1 mps 754 mmHg 81%
02:00 +21°C° 0 mm 1 mps 754 mmHg 82%
03:00 +21°C° 0 mm 1 mps 754 mmHg 82%
04:00 +21°C° 0 mm 1 mps 754 mmHg 81%
05:00 +21°C° 0 mm 2 mps 754 mmHg 81%
06:00 +24°C° 0 mm 2 mps 754 mmHg 73%
07:00 +26°C° 0 mm 2 mps 754 mmHg 65%
08:00 +28°C° 0 mm 2 mps 754 mmHg 57%
09:00 +30°C° 0 mm 2 mps 754 mmHg 51%
10:00 +31°C° 0 mm 2 mps 754 mmHg 45%
11:00 +34°C° 0 mm 3 mps 754 mmHg 39%
12:00 +34°C° 0 mm 2 mps 754 mmHg 37%
13:00 +35°C° 0 mm 2 mps 754 mmHg 35%
14:00 +36°C° 0 mm 2 mps 754 mmHg 33%
15:00 +36°C° 0 mm 2 mps 754 mmHg 35%
16:00 +35°C° 0 mm 2 mps 753 mmHg 37%
17:00 +34°C° 0 mm 1 mps 753 mmHg 39%
18:00 +32°C° 0 mm 2 mps 753 mmHg 49%
19:00 +29°C° 0 mm 2 mps 753 mmHg 59%
20:00 +27°C° 0 mm 2 mps 753 mmHg 68%
21:00 +26°C° 0 mm 2 mps 753 mmHg 72%
22:00 +25°C° 0 mm 2 mps 754 mmHg 75%
23:00 +24°C° 0 mm 2 mps 754 mmHg 78%
Show more